Weather History for KMOB - October, 2013

Change the Weather History Date:

Sunday, October 27, 2013

  Actual Average Record
Temperature  
Mean Temperature 60 °F 65 °F  
Max Temperature 75 °F 76 °F 88 °F (1939)
Min Temperature 45 °F 54 °F 33 °F (1957)
Degree Days  
Heating Degree Days 5 3  
Month to date heating degree days 30 38  
Since 1 July heating degree days 30 40  
Cooling Degree Days 0 3  
Month to date cooling degree days 177 146  
Year to date cooling degree days 2457 2450  
Growing Degree Days 10 (Base 50)    
Moisture  
Dew Point 49 °F    
Average Humidity 62    
Maximum Humidity 86    
Minimum Humidity 38    
Precipitation  
Precipitation 0.00 in 0.13 in 3.03 in (1984)
Month to date precipitation 2.08 3.17  
Year to date precipitation 58.37 55.44  
Sea Level Pressure  
Sea Level Pressure 30.14 in    
Wind  
Wind Speed 3 mph (SE)    
Max Wind Speed 10 mph    
Max Gust Speed 14 mph    
Visibility 10 miles    
Events      
T = Trace of Precipitation, MM = Missing Value Source: NWS Daily Summary

Daily Weather History Graph

Daily Weather History Graph

Search for Another Location

Airport or City:

Trip Planner

Search our weather history database for the weather conditions in past years. The results will help you decide how hot, cold, wet, or windy it might be!

Date:

Astronomy

Oct. 27, 2013 Rise Set
Actual Time 7:04 AM CDT 6:09 PM CDT
Civil Twilight 6:39 AM CDT 6:33 PM CDT
Nautical Twilight 6:11 AM CDT 7:02 PM CDT
Astronomical Twilight 5:43 AM CDT 7:30 PM CDT
Moon 12:28 AM CDT (10/27) 1:53 PM CDT (10/27)
Length of Visible Light 11h 54m
Length of Day
11h 04m
Last Quarter, 43% of the Moon is Illuminated
Oct 27
Last Quarter
Nov 3
New
Nov 9
First Quarter
Nov 17
Full
Nov 25
Last Quarter

Hourly Weather History & Observations

Time (CDT) Temp. Dew Point Humidity Pressure Visibility Wind Dir Wind Speed Gust Speed Precip Events Conditions
12:56 AM 48.9 °F 43.0 °F 80% 30.16 in 10.0 mi Calm Calm - N/A   Clear
1:56 AM 46.9 °F 43.0 °F 86% 30.14 in 10.0 mi Calm Calm - N/A   Clear
2:56 AM 46.0 °F 42.1 °F 86% 30.13 in 10.0 mi Calm Calm - N/A   Clear
3:56 AM 46.9 °F 42.1 °F 83% 30.13 in 10.0 mi Calm Calm - N/A   Clear
4:56 AM 48.0 °F 42.1 °F 80% 30.13 in 10.0 mi Calm Calm - N/A   Clear
5:56 AM 46.9 °F 42.1 °F 83% 30.13 in 10.0 mi Calm Calm - N/A   Partly Cloudy
6:56 AM 48.9 °F 43.0 °F 80% 30.14 in 10.0 mi Calm Calm - N/A   Partly Cloudy
7:56 AM 53.1 °F 46.0 °F 77% 30.15 in 10.0 mi Calm Calm - N/A   Scattered Clouds
8:56 AM 62.1 °F 46.9 °F 58% 30.17 in 10.0 mi East 4.6 mph - N/A   Scattered Clouds
9:56 AM 68.0 °F 46.0 °F 45% 30.18 in 10.0 mi ESE 6.9 mph - N/A   Scattered Clouds
10:56 AM 72.0 °F 46.0 °F 40% 30.18 in 10.0 mi SE 9.2 mph - N/A   Mostly Cloudy
11:56 AM 73.0 °F 48.0 °F 41% 30.17 in 10.0 mi ESE 6.9 mph - N/A   Mostly Cloudy
12:56 PM 73.9 °F 46.9 °F 38% 30.16 in 10.0 mi SSE 9.2 mph - N/A   Mostly Cloudy
1:56 PM 73.0 °F 48.9 °F 42% 30.12 in 10.0 mi South 3.5 mph - N/A   Mostly Cloudy
2:56 PM 72.0 °F 52.0 °F 49% 30.12 in 10.0 mi SSE 4.6 mph - N/A   Clear
3:56 PM 71.1 °F 55.0 °F 57% 30.10 in 10.0 mi ESE 5.8 mph - N/A   Partly Cloudy
4:56 PM 70.0 °F 55.0 °F 59% 30.11 in 10.0 mi SE 3.5 mph - N/A   Partly Cloudy
5:56 PM 68.0 °F 55.9 °F 65% 30.12 in 10.0 mi Calm Calm - N/A   Partly Cloudy
6:56 PM 64.9 °F 57.0 °F 75% 30.11 in 10.0 mi East 3.5 mph - N/A   Mostly Cloudy
7:56 PM 64.0 °F 55.9 °F 75% 30.12 in 10.0 mi SE 3.5 mph - N/A   Scattered Clouds
8:56 PM 64.0 °F 55.9 °F 75% 30.13 in 10.0 mi SSE 4.6 mph - N/A   Mostly Cloudy
9:56 PM 61.0 °F 55.9 °F 83% 30.13 in 10.0 mi SE 4.6 mph - N/A   Scattered Clouds
10:56 PM 61.0 °F 55.0 °F 81% 30.14 in 10.0 mi SE 5.8 mph - N/A   Partly Cloudy
11:56 PM 60.1 °F 55.0 °F 83% 30.13 in 10.0 mi ESE 3.5 mph - N/A   Clear